sat.trackr.live / text

‹ back to catalog

ALICE

NORAD 39467 · 2013-072F

PAYLOAD ACTIVE UNKNOWN

§ Identity

Operator
Country
US
Launch date
2013-12-06
Launch site
AFWTR
Launch vehicle
Mass (kg)
RCS (m²)

External: N2YO · Heavens-Above · Gunter

§ Orbital elements

Epoch: 2026-09-20T02:18:33.329376Z

Period
95.34 min
Inclination
120.4643°
Eccentricity
0.0169372
Mean motion
15.10364071 rev/d
Perigee alt
418.0 km
Apogee alt
652.2 km
Semi-major
6,913.2 km
B*
3.6641e-4
RAAN
301.5782°
Arg perigee
94.8591°
Mean anomaly
267.1839°
Rev number
12,960

§ Raw data

ALICE1 39467U 13072F   26263.09621909  .00008142  00000+0  36641-3 0  99942 39467 120.4643 301.5782 0169372  94.8591 267.1839 15.10364071129603

JSON: /api/v1/satellites/39467 · /tle

For live sub-satellite position, see the globe view (requires WebGL).

§ Visibility from observer

Set your observer location to see the next 7 days of passes ≥ 10°. The values pass through the URL so the page stays shareable.

No JS? Fill the form by hand. The geolocation button needs JavaScript.